NWK1610 YPPH-YPKG

Flight info

Callsign NWK1610
Flight time 0h 52m
Altitude 35000
Route PH Y31 LAKIR Y69 BOSLI Y67 KG
Aircraft A320/M-SDE3FGHIRWY/LB1

Departure

Time 2026-05-05 09:51
Airport Perth International Airport (YPPH)

Arrival

Time 2026-05-05 10:43
Airport Kalgoorlie Boulder Airport (YPKG)
Time Latitude Longitude Altitude Speed Heading
2026-05-05 09:20 -31.93439 115.96182 61 ft 0 kts 301°
2026-05-05 09:44 -31.93443 115.96189 61 ft 4 kts 302°
2026-05-05 09:44 -31.93459 115.96214 68 ft 4 kts 315°
2026-05-05 09:44 -31.93480 115.96233 62 ft 4 kts 338°
2026-05-05 09:45 -31.93504 115.96238 65 ft 4 kts 19°
2026-05-05 09:45 -31.93512 115.96235 59 ft 0 kts 31°
2026-05-05 09:47 -31.93511 115.96235 59 ft 0 kts 31°
2026-05-05 09:48 -31.93491 115.96249 65 ft 6 kts 30°
2026-05-05 09:48 -31.93443 115.96278 63 ft 9 kts 26°
2026-05-05 09:49 -31.93419 115.96345 68 ft 10 kts 107°
2026-05-05 09:49 -31.93453 115.96431 61 ft 13 kts 115°
2026-05-05 09:49 -31.93487 115.96515 65 ft 0 kts 115°
2026-05-05 09:49 -31.93490 115.96521 65 ft 2 kts 115°
2026-05-05 09:50 -31.93498 115.96542 62 ft 6 kts 115°
2026-05-05 09:50 -31.93524 115.96607 62 ft 11 kts 115°
2026-05-05 09:50 -31.93569 115.96639 60 ft 7 kts 192°
2026-05-05 09:50 -31.93699 115.96602 63 ft 53 kts 194°
2026-05-05 09:51 -31.94257 115.96439 67 ft 112 kts 194°
2026-05-05 09:51 -31.95176 115.96175 111 ft 153 kts 193°
2026-05-05 09:51 -31.96193 115.95887 712 ft 150 kts 194°
2026-05-05 09:51 -31.97219 115.95596 1268 ft 153 kts 191°
2026-05-05 09:52 -31.98258 115.95295 1768 ft 157 kts 192°
2026-05-05 09:52 -31.99409 115.94961 1971 ft 182 kts 191°
2026-05-05 09:52 -32.00702 115.94589 2264 ft 202 kts 191°
2026-05-05 09:52 -32.02168 115.94494 2485 ft 223 kts 161°
2026-05-05 09:53 -32.03448 115.95596 2908 ft 243 kts 124°
2026-05-05 09:53 -32.04142 115.97475 3578 ft 255 kts 107°
2026-05-05 09:53 -32.04570 115.99529 4469 ft 260 kts 102°
2026-05-05 09:53 -32.04917 116.01627 5370 ft 263 kts 102°
2026-05-05 09:54 -32.05283 116.03753 6246 ft 266 kts 103°
2026-05-05 09:54 -32.05699 116.05902 7058 ft 272 kts 104°
2026-05-05 09:54 -32.06164 116.08079 7846 ft 276 kts 105°
2026-05-05 09:54 -32.06655 116.10250 8636 ft 279 kts 106°
2026-05-05 09:55 -32.07171 116.12471 9442 ft 283 kts 107°
2026-05-05 09:55 -32.07696 116.14723 10242 ft 286 kts 106°
2026-05-05 09:55 -32.08149 116.17077 10646 ft 305 kts 98°
2026-05-05 09:55 -32.08168 116.19672 10886 ft 327 kts 83°
2026-05-05 09:56 -32.07575 116.22300 11450 ft 337 kts 68°
2026-05-05 09:56 -32.06393 116.24708 12120 ft 343 kts 53°
2026-05-05 09:56 -32.04778 116.26808 12837 ft 347 kts 48°
2026-05-05 09:56 -32.03115 116.28882 13543 ft 350 kts 48°
2026-05-05 09:57 -32.01434 116.30974 14220 ft 353 kts 48°
2026-05-05 09:57 -31.99736 116.33085 14808 ft 357 kts 47°
2026-05-05 09:57 -31.98017 116.35220 15377 ft 361 kts 47°
2026-05-05 09:57 -31.96282 116.37378 15942 ft 365 kts 47°
2026-05-05 09:58 -31.94529 116.39560 16502 ft 369 kts 47°
2026-05-05 09:58 -31.92760 116.41765 17061 ft 373 kts 47°
2026-05-05 09:58 -31.90968 116.43998 17631 ft 376 kts 47°
2026-05-05 09:58 -31.89182 116.46220 18150 ft 381 kts 46°
2026-05-05 09:59 -31.87357 116.48486 18311 ft 383 kts 46°
2026-05-05 09:59 -31.85511 116.50773 18773 ft 386 kts 46°
2026-05-05 09:59 -31.83655 116.53074 19315 ft 389 kts 46°
2026-05-05 09:59 -31.81790 116.55392 19855 ft 392 kts 46°
2026-05-05 10:00 -31.79911 116.57725 20395 ft 395 kts 46°
2026-05-05 10:00 -31.78016 116.60078 20942 ft 397 kts 46°
2026-05-05 10:00 -31.76108 116.62446 21476 ft 400 kts 46°
2026-05-05 10:00 -31.74187 116.64826 21992 ft 403 kts 46°
2026-05-05 10:01 -31.72251 116.67220 22523 ft 406 kts 45°
2026-05-05 10:01 -31.70296 116.69635 23041 ft 408 kts 45°
2026-05-05 10:01 -31.68333 116.72058 23559 ft 411 kts 45°
2026-05-05 10:01 -31.66351 116.74501 24030 ft 414 kts 45°
2026-05-05 10:02 -31.64356 116.76957 24433 ft 417 kts 45°
2026-05-05 10:02 -31.62345 116.79433 24835 ft 420 kts 45°
2026-05-05 10:02 -31.60323 116.81921 25242 ft 423 kts 45°
2026-05-05 10:02 -31.58286 116.84430 25634 ft 426 kts 45°
2026-05-05 10:03 -31.56286 116.87013 26015 ft 429 kts 51°
2026-05-05 10:03 -31.54609 116.89921 26381 ft 433 kts 60°
2026-05-05 10:03 -31.53233 116.93026 26731 ft 436 kts 63°
2026-05-05 10:03 -31.51847 116.96200 27101 ft 439 kts 63°
2026-05-05 10:04 -31.50453 116.99390 27457 ft 441 kts 63°
2026-05-05 10:04 -31.49050 117.02601 27812 ft 444 kts 63°
2026-05-05 10:04 -31.47637 117.05831 28159 ft 446 kts 63°
2026-05-05 10:04 -31.46213 117.09072 28508 ft 449 kts 62°
2026-05-05 10:05 -31.44774 117.12331 28861 ft 452 kts 62°
2026-05-05 10:05 -31.43328 117.15605 29201 ft 454 kts 62°
2026-05-05 10:05 -31.41871 117.18904 29541 ft 457 kts 63°
2026-05-05 10:05 -31.40410 117.22217 29878 ft 459 kts 63°
2026-05-05 10:06 -31.38939 117.25553 30217 ft 462 kts 63°
2026-05-05 10:06 -31.37462 117.28907 30528 ft 464 kts 63°
2026-05-05 10:06 -31.35979 117.32275 30801 ft 467 kts 62°
2026-05-05 10:06 -31.34485 117.35664 31071 ft 469 kts 62°
2026-05-05 10:07 -31.32979 117.39064 31377 ft 470 kts 62°
2026-05-05 10:07 -31.31492 117.42412 31762 ft 470 kts 62°
2026-05-05 10:07 -31.29982 117.45807 32139 ft 470 kts 62°
2026-05-05 10:07 -31.28476 117.49194 32514 ft 470 kts 62°
2026-05-05 10:08 -31.26966 117.52591 32889 ft 470 kts 62°
2026-05-05 10:08 -31.25487 117.56002 33256 ft 470 kts 63°
2026-05-05 10:08 -31.24067 117.59439 33633 ft 470 kts 64°
2026-05-05 10:08 -31.22680 117.62903 34018 ft 470 kts 64°
2026-05-05 10:09 -31.21306 117.66374 34387 ft 470 kts 64°
2026-05-05 10:09 -31.19927 117.69843 34696 ft 470 kts 64°
2026-05-05 10:09 -31.18539 117.73297 35001 ft 470 kts 64°
2026-05-05 10:09 -31.17139 117.76749 35259 ft 471 kts 63°
2026-05-05 10:10 -31.14312 117.83656 35333 ft 475 kts 63°
2026-05-05 10:10 -31.11422 117.90706 35331 ft 485 kts 63°
2026-05-05 10:11 -31.08494 117.97824 35332 ft 487 kts 63°
2026-05-05 10:11 -31.05562 118.04946 35331 ft 487 kts 63°
2026-05-05 10:12 -31.02629 118.12065 35329 ft 487 kts 63°
2026-05-05 10:12 -30.99691 118.19189 35331 ft 488 kts 63°
2026-05-05 10:13 -30.96740 118.26313 35337 ft 488 kts 63°
2026-05-05 10:13 -30.93792 118.33427 35340 ft 488 kts 63°
2026-05-05 10:14 -30.90841 118.40542 35345 ft 488 kts 63°
2026-05-05 10:14 -30.87886 118.47653 35344 ft 488 kts 63°
2026-05-05 10:15 -30.84944 118.54714 35338 ft 488 kts 63°
2026-05-05 10:15 -30.81973 118.61819 35339 ft 489 kts 63°
2026-05-05 10:16 -30.78996 118.68931 35341 ft 489 kts 63°
2026-05-05 10:16 -30.76011 118.76045 35342 ft 489 kts 63°
2026-05-05 10:17 -30.73074 118.83176 35341 ft 489 kts 67°
2026-05-05 10:17 -30.71489 118.90839 35343 ft 489 kts 86°
2026-05-05 10:18 -30.71142 118.98665 35330 ft 476 kts 88°
2026-05-05 10:18 -30.70814 119.06316 35334 ft 472 kts 88°
2026-05-05 10:19 -30.70485 119.13921 35182 ft 470 kts 88°
2026-05-05 10:19 -30.70320 119.17649 34581 ft 464 kts 88°
2026-05-05 10:19 -30.70153 119.21368 34055 ft 458 kts 88°
2026-05-05 10:20 -30.69986 119.25058 33552 ft 455 kts 88°
2026-05-05 10:20 -30.69817 119.28711 33040 ft 450 kts 88°
2026-05-05 10:20 -30.69646 119.32313 32556 ft 442 kts 88°
2026-05-05 10:20 -30.69481 119.35858 32087 ft 435 kts 88°
2026-05-05 10:21 -30.69318 119.39363 31606 ft 433 kts 88°
2026-05-05 10:21 -30.69156 119.42853 31135 ft 431 kts 88°
2026-05-05 10:21 -30.68996 119.46322 30674 ft 428 kts 88°
2026-05-05 10:21 -30.68834 119.49755 30201 ft 422 kts 88°
2026-05-05 10:22 -30.68672 119.53132 29748 ft 414 kts 88°
2026-05-05 10:22 -30.68516 119.56403 29344 ft 410 kts 88°
2026-05-05 10:22 -30.68360 119.59704 28929 ft 408 kts 88°
2026-05-05 10:22 -30.68203 119.62978 28514 ft 403 kts 88°
2026-05-05 10:23 -30.68048 119.66209 28121 ft 399 kts 88°
2026-05-05 10:23 -30.67890 119.69431 27712 ft 398 kts 88°
2026-05-05 10:23 -30.67728 119.72634 27299 ft 397 kts 88°
2026-05-05 10:23 -30.67565 119.75836 26891 ft 396 kts 88°
2026-05-05 10:24 -30.67403 119.79015 26462 ft 391 kts 88°
2026-05-05 10:24 -30.67244 119.82146 26054 ft 385 kts 88°
2026-05-05 10:24 -30.67089 119.85250 25638 ft 384 kts 89°
2026-05-05 10:24 -30.66934 119.88338 25209 ft 383 kts 89°
2026-05-05 10:25 -30.66776 119.91430 24778 ft 382 kts 89°
2026-05-05 10:25 -30.66620 119.94483 24347 ft 376 kts 89°
2026-05-05 10:25 -30.66469 119.97497 23918 ft 371 kts 89°
2026-05-05 10:25 -30.66322 120.00430 23443 ft 366 kts 89°
2026-05-05 10:26 -30.66174 120.03371 23024 ft 364 kts 89°
2026-05-05 10:26 -30.66024 120.06295 22596 ft 362 kts 89°
2026-05-05 10:26 -30.65874 120.09210 22173 ft 360 kts 89°
2026-05-05 10:26 -30.65723 120.12106 21753 ft 359 kts 89°
2026-05-05 10:27 -30.65571 120.14990 21329 ft 357 kts 89°
2026-05-05 10:27 -30.65418 120.17864 20904 ft 354 kts 89°
2026-05-05 10:27 -30.65266 120.20697 20493 ft 348 kts 89°
2026-05-05 10:27 -30.65117 120.23477 20086 ft 342 kts 89°
2026-05-05 10:28 -30.64971 120.26212 19682 ft 337 kts 89°
2026-05-05 10:28 -30.64828 120.28911 19285 ft 334 kts 89°
2026-05-05 10:28 -30.64685 120.31608 18885 ft 334 kts 89°
2026-05-05 10:28 -30.64541 120.34307 18461 ft 334 kts 89°
2026-05-05 10:29 -30.64529 120.37008 17751 ft 334 kts 95°
2026-05-05 10:29 -30.64691 120.39671 17321 ft 328 kts 96°
2026-05-05 10:29 -30.64874 120.42281 16935 ft 321 kts 97°
2026-05-05 10:29 -30.65060 120.44842 16557 ft 317 kts 97°
2026-05-05 10:30 -30.65242 120.47353 16189 ft 316 kts 97°
2026-05-05 10:30 -30.65426 120.49896 15811 ft 315 kts 96°
2026-05-05 10:30 -30.65606 120.52430 15438 ft 314 kts 96°
2026-05-05 10:30 -30.65780 120.54962 15064 ft 314 kts 96°
2026-05-05 10:31 -30.65952 120.57484 14692 ft 313 kts 96°
2026-05-05 10:31 -30.66125 120.60005 14318 ft 312 kts 96°
2026-05-05 10:31 -30.66295 120.62513 13918 ft 311 kts 96°
2026-05-05 10:31 -30.66463 120.65003 13538 ft 307 kts 96°
2026-05-05 10:32 -30.66628 120.67468 13171 ft 305 kts 96°
2026-05-05 10:32 -30.66790 120.69912 12801 ft 301 kts 96°
2026-05-05 10:32 -30.66951 120.72318 12445 ft 298 kts 96°
2026-05-05 10:32 -30.67109 120.74715 12085 ft 297 kts 96°
2026-05-05 10:33 -30.67266 120.77097 11727 ft 295 kts 96°
2026-05-05 10:33 -30.67423 120.79471 11370 ft 294 kts 96°
2026-05-05 10:33 -30.67581 120.81834 11017 ft 293 kts 96°
2026-05-05 10:33 -30.67736 120.84157 10562 ft 285 kts 97°
2026-05-05 10:34 -30.67889 120.86447 9981 ft 281 kts 97°
2026-05-05 10:34 -30.68037 120.88691 9611 ft 277 kts 96°
2026-05-05 10:34 -30.68134 120.90168 9381 ft 277 kts 96°
2026-05-05 10:34 -30.68327 120.93116 8931 ft 275 kts 96°
2026-05-05 10:35 -30.68470 120.95335 8583 ft 274 kts 96°
2026-05-05 10:35 -30.68614 120.97540 8254 ft 273 kts 96°
2026-05-05 10:35 -30.68710 120.99023 8027 ft 272 kts 96°
2026-05-05 10:35 -30.68894 121.01897 7590 ft 268 kts 96°
2026-05-05 10:36 -30.68986 121.03323 7373 ft 267 kts 96°
2026-05-05 10:36 -30.69123 121.05474 7043 ft 267 kts 95°
2026-05-05 10:36 -30.69260 121.07628 6713 ft 267 kts 95°
2026-05-05 10:36 -30.69397 121.09770 6432 ft 261 kts 95°
2026-05-05 10:37 -30.69522 121.11790 6356 ft 240 kts 95°
2026-05-05 10:37 -30.69638 121.13660 6272 ft 227 kts 96°
2026-05-05 10:37 -30.69751 121.15466 6169 ft 223 kts 95°
2026-05-05 10:37 -30.69961 121.17853 6038 ft 221 kts 105°
2026-05-05 10:38 -30.70276 121.18979 5810 ft 221 kts 111°
2026-05-05 10:38 -30.70820 121.20640 5444 ft 219 kts 111°
2026-05-05 10:38 -30.71359 121.22296 5108 ft 218 kts 111°
2026-05-05 10:38 -30.71884 121.23921 4758 ft 212 kts 111°
2026-05-05 10:39 -30.72397 121.25511 4440 ft 210 kts 111°
2026-05-05 10:39 -30.72906 121.27094 4106 ft 206 kts 111°
2026-05-05 10:39 -30.73399 121.28628 3797 ft 199 kts 111°
2026-05-05 10:39 -30.73882 121.30130 3483 ft 199 kts 111°
2026-05-05 10:40 -30.74369 121.31637 3171 ft 199 kts 111°
2026-05-05 10:40 -30.74837 121.33092 3106 ft 183 kts 111°
2026-05-05 10:40 -30.75258 121.34399 3018 ft 168 kts 111°
2026-05-05 10:40 -30.75656 121.35631 2935 ft 151 kts 111°
2026-05-05 10:41 -30.76010 121.36725 2801 ft 142 kts 111°
2026-05-05 10:41 -30.76355 121.37793 2630 ft 138 kts 112°
2026-05-05 10:41 -30.76687 121.38816 2427 ft 137 kts 112°
2026-05-05 10:41 -30.77020 121.39847 2237 ft 135 kts 112°
2026-05-05 10:42 -30.77676 121.41922 1882 ft 137 kts 111°
2026-05-05 10:42 -30.78010 121.42965 1701 ft 138 kts 112°
2026-05-05 10:42 -30.78354 121.44012 1473 ft 138 kts 112°
2026-05-05 10:43 -30.78688 121.45047 1289 ft 136 kts 113°
2026-05-05 10:43 -30.79014 121.46039 1214 ft 118 kts 110°
2026-05-05 10:43 -30.79238 121.46739 1210 ft 68 kts 110°
2026-05-05 10:43 -30.79345 121.47070 1212 ft 27 kts 111°
2026-05-05 10:44 -30.79393 121.47225 1212 ft 16 kts 109°
2026-05-05 10:44 -30.79427 121.47333 1211 ft 7 kts 110°
2026-05-05 10:44 -30.79429 121.47398 1211 ft 9 kts 111°
2026-05-05 10:44 -30.79444 121.47367 1211 ft 8 kts 300°
2026-05-05 10:45 -30.79418 121.47305 1212 ft 9 kts 291°
2026-05-05 10:45 -30.79396 121.47231 1212 ft 11 kts 289°
2026-05-05 10:45 -30.79368 121.47141 1212 ft 13 kts 291°
2026-05-05 10:45 -30.79333 121.47035 1212 ft 15 kts 290°
2026-05-05 10:46 -30.79295 121.46915 1212 ft 17 kts 290°
2026-05-05 10:46 -30.79253 121.46784 1211 ft 18 kts 290°
2026-05-05 10:46 -30.79207 121.46639 1210 ft 20 kts 289°
2026-05-05 10:46 -30.79160 121.46502 1210 ft 17 kts 291°
2026-05-05 10:47 -30.79125 121.46384 1210 ft 16 kts 291°
2026-05-05 10:47 -30.79085 121.46265 1211 ft 16 kts 290°
2026-05-05 10:47 -30.79046 121.46144 1213 ft 17 kts 291°
2026-05-05 10:47 -30.79003 121.46013 1213 ft 18 kts 290°
2026-05-05 10:48 -30.78957 121.45866 1214 ft 20 kts 290°
2026-05-05 10:48 -30.78912 121.45732 1214 ft 13 kts 300°
2026-05-05 10:48 -30.78826 121.45730 1212 ft 15 kts 19°
2026-05-05 10:48 -30.78719 121.45776 1212 ft 16 kts 20°
2026-05-05 10:49 -30.78682 121.45792 1212 ft 4 kts 20°
2026-05-05 10:49 -30.78643 121.45796 1212 ft 7 kts 355°
2026-05-05 10:49 -30.78609 121.45793 1212 ft 4 kts 359°
2026-05-05 10:49 -30.78595 121.45802 1212 ft 0 kts 40°
2026-05-05 10:50 -30.78593 121.45806 1212 ft 0 kts 54°